Home > Weather > Rochester > Past weeks

Flag for U.S.A. Weather for the Past 2 Weeks in Rochester, New York, U.S.A.

Now
29 °F

Light snow. Ice fog.


Feels Like: 18 °F
Forecast: 22 / 32 °F
Wind: 15 mph from West

Location: Greater Rochester International Airport

Current Time: Feb 10, 2016 at 8:33:18 AM

Latest Report: Feb 10, 2016 at 7:54 AM


Visibility: 2 mi

Pressure: 29.59 "Hg

Humidity: 82%

Dew point: 24 °F

Location of RochesterLocation

Historic Weather in Rochester — Graph

°F

Rochester Temperature Yesterday

Maximum temperature yesterday: 40 °F (at 11:54 AM)
Minimum temperature yesterday: 32 °F (at 1:02 AM)
Average temperature yesterday: 35 °F

High & Low Weather Summary for the Past Weeks

 TemperatureHumidityPressure
High60 °F (Feb 1, 1:54 AM)96% (Jan 29, 1:54 AM)30.39 "Hg (Jan 29, 1:54 AM)
Low19 °F (Jan 30, 3:54 AM)40% (Jan 30, 1:54 PM)29.49 "Hg (Feb 1, 1:54 AM)
Average37 °F68%29.90 "Hg
* Reported Jan 26 6:54 AM — Feb 10 6:54 AM, Rochester, Weather by CustomWeather, © 2016

Note: Actual official high and low records may vary slightly from our data, if they occured in-between our weather recording intervals... More about our weather records

Advertising

Rochester Weather History for the Previous 24 Hours

 ConditionsComfort  
Time TempWeatherWind HumidityBarometerVisibility
6:54 AM
Wed, Feb 10
29 °FLight snow. Ice fog.16 mph85%29.56 "Hg3 mi
5:54 AM30 °FLight snow. Ice fog.23 mph82%29.54 "Hg2 mi
4:54 AM30 °FLight snow. Ice fog.14 mph85%29.52 "Hg4 mi
3:54 AM32 °FLight snow. Mostly cloudy.14 mph73%29.51 "Hg9 mi
2:54 AM33 °FLight snow. Mostly cloudy.16 mph70%29.51 "Hg10 mi
1:54 AM33 °FOvercast.17 mph66%29.52 "Hg10 mi
12:54 AM33 °FMostly cloudy.16 mph61%29.53 "Hg10 mi
11:54 PM
Tue, Feb 9
32 °FPassing clouds.14 mph66%29.54 "Hg10 mi
10:54 PM33 °FPassing clouds.13 mph70%29.54 "Hg10 mi
9:54 PM34 °FOvercast.13 mph70%29.56 "Hg10 mi
8:54 PM35 °FOvercast.14 mph70%29.57 "Hg10 mi
7:54 PM35 °FMostly cloudy.9 mph72%29.57 "Hg10 mi
6:54 PM36 °FPassing clouds.15 mph67%29.56 "Hg10 mi
5:54 PM36 °FPartly cloudy.10 mph67%29.55 "Hg10 mi
4:54 PM38 °FBroken clouds.10 mph63%29.53 "Hg10 mi
3:54 PM39 °FPartly sunny.13 mph65%29.52 "Hg10 mi
2:54 PM40 °FBroken clouds.14 mph65%29.50 "Hg10 mi
1:54 PM39 °FBroken clouds.14 mph67%29.49 "Hg10 mi
12:54 PM40 °FBroken clouds.12 mph70%29.51 "Hg10 mi
11:54 AM40 °FBroken clouds.9 mph73%29.54 "Hg10 mi
10:54 AM38 °FBroken clouds.8 mph83%29.55 "Hg10 mi
9:54 AM35 °FBroken clouds.7 mph88%29.56 "Hg8 mi
8:54 AM34 °FFog.3 mph88%29.55 "Hg5 mi
Weather by CustomWeather, © 2016

See weather overviewHow to use our weather pages